Anoka County, MN

3:17 AM CDT on June 25, 2017 (GMT -0500)
Anoka County / Blaine Airport

Weather History for KANE - October, 2012

Change the Weather History Date:

Sunday, October 21, 2012

  Actual Average Record
Temperature  
Mean Temperature 56 °F -  
Max Temperature 71 °F 53 °F 71 °F (2012)
Min Temperature 42 °F 36 °F 26 °F (2008)
Degree Days  
Heating Degree Days 8    
Growing Degree Days 6 (Base 50)    
Moisture  
Dew Point 45 °F    
Average Humidity 80    
Maximum Humidity 100    
Minimum Humidity 40    
Precipitation  
Precipitation 0.00 in - - ()
Sea Level Pressure  
Sea Level Pressure 29.83 in    
Wind  
Wind Speed 6 mph (ESE)    
Max Wind Speed 14 mph    
Max Gust Speed 22 mph    
Visibility 10 miles    
Events      
Averages and records for this station are not official NWS values.
T = Trace of Precipitation, MM = Missing Value Source: NWS Daily Summary

Daily Weather History Graph

Daily Weather History Graph

Search for Another Location

Airport or City:

Trip Planner

Search our weather history database for the weather conditions in past years. The results will help you decide how hot, cold, wet, or windy it might be!

Date:

Astronomy

Oct. 21, 2012 Rise Set
Actual Time 7:37 AM CDT 6:16 PM CDT
Civil Twilight 7:07 AM CDT 6:46 PM CDT
Nautical Twilight 6:33 AM CDT 7:20 PM CDT
Astronomical Twilight 5:58 AM CDT 7:54 PM CDT
Moon 2:04 PM CDT (10/21) No Moon Set
Length of Visible Light 11h 39m
Length of Day
10h 39m
Waxing Crescent, 45% of the Moon is Illuminated
Oct 21
Waxing Crescent
Oct 21
First Quarter
Oct 29
Full
Nov 6
Last Quarter
Nov 13
New

Hourly Weather History & Observations

Time (CDT) Temp. Windchill Dew Point Humidity Pressure Visibility Wind Dir Wind Speed Gust Speed Precip Events Conditions
12:34 AM 48.2 °F - 44.6 °F 87% 29.81 in 10.0 mi SSE 8.1 mph - N/A   Clear
12:54 AM 48.2 °F - 44.6 °F 87% 29.82 in 10.0 mi SSE 6.9 mph - N/A   Clear
1:14 AM 48.2 °F - 44.6 °F 87% 29.82 in 10.0 mi SSE 5.8 mph - N/A   Clear
1:34 AM 46.4 °F 43.5 °F 44.6 °F 93% 29.82 in 10.0 mi SSE 5.8 mph - N/A   Clear
1:54 AM 46.4 °F 44.3 °F 44.6 °F 93% 29.83 in 10.0 mi SE 4.6 mph - N/A   Clear
2:14 AM 46.4 °F 45.2 °F 44.6 °F 93% 29.84 in 10.0 mi East 3.5 mph - N/A   Clear
2:34 AM 46.4 °F 43.5 °F 44.6 °F 93% 29.83 in 10.0 mi ESE 5.8 mph - N/A   Clear
2:54 AM 46.4 °F 44.3 °F 44.6 °F 93% 29.83 in 10.0 mi SE 4.6 mph - N/A   Clear
3:14 AM 46.4 °F 45.2 °F 44.6 °F 93% 29.83 in 10.0 mi East 3.5 mph - N/A   Clear
3:34 AM 46.4 °F 44.3 °F 44.6 °F 93% 29.83 in 7.0 mi ESE 4.6 mph - N/A   Clear
3:54 AM 44.6 °F 43.1 °F 42.8 °F 93% 29.83 in 7.0 mi East 3.5 mph - N/A   Clear
4:14 AM 42.8 °F 40.1 °F 42.8 °F 100% 29.84 in 7.0 mi East 4.6 mph - N/A   Clear
4:34 AM 42.8 °F 41.1 °F 41.0 °F 93% 29.84 in 7.0 mi East 3.5 mph - N/A   Clear
4:54 AM 42.8 °F 39.3 °F 42.8 °F 100% 29.83 in 5.0 mi East 5.8 mph - N/A   Clear
5:14 AM 44.6 °F 40.7 °F 42.8 °F 93% 29.82 in 7.0 mi ESE 6.9 mph - N/A   Clear
5:34 AM 44.6 °F 40.2 °F 42.8 °F 93% 29.82 in 10.0 mi ESE 8.1 mph - N/A   Clear
5:54 AM 44.6 °F 41.4 °F 42.8 °F 93% 29.82 in 10.0 mi SE 5.8 mph - N/A   Clear
6:14 AM 44.6 °F 41.4 °F 42.8 °F 93% 29.82 in 10.0 mi ESE 5.8 mph - N/A   Clear
6:34 AM 44.6 °F 41.4 °F 42.8 °F 93% 29.83 in 10.0 mi SE 5.8 mph - N/A   Clear
6:45 AM 42.8 °F 41.1 °F 42.8 °F 100% 29.83 in 10.0 mi SE 3.5 mph - N/A   Scattered Clouds
6:54 AM 42.8 °F 39.3 °F 42.8 °F 100% 29.83 in 7.0 mi ESE 5.8 mph - N/A   Clear
7:45 AM 42.8 °F 38.6 °F 42.8 °F 100% 29.82 in 10.0 mi East 6.9 mph - N/A   Scattered Clouds
8:45 AM 46.4 °F 41.1 °F 44.6 °F 93% 29.80 in 10.0 mi ESE 11.5 mph - N/A   Mostly Cloudy
9:45 AM 50.0 °F - 44.6 °F 82% 29.81 in 10.0 mi SE 9.2 mph - N/A   Mostly Cloudy
10:45 AM 53.6 °F - 46.4 °F 77% 29.81 in 10.0 mi ESE 10.4 mph - N/A   Scattered Clouds
11:45 AM 59.0 °F - 44.6 °F 59% 29.81 in 10.0 mi SE 11.5 mph 17.3 mph N/A   Scattered Clouds
12:45 PM 60.8 °F - 42.8 °F 52% 29.81 in 10.0 mi SE 6.9 mph - N/A   Mostly Cloudy
1:45 PM 64.4 °F - 44.6 °F 49% 29.78 in 10.0 mi ESE 13.8 mph - N/A   Mostly Cloudy
2:55 PM 69.8 °F - 44.6 °F 40% 29.77 in 10.0 mi SE 10.4 mph 21.9 mph N/A   Mostly Cloudy
3:55 PM 71.6 °F - 46.4 °F 41% 29.77 in 10.0 mi SE 6.9 mph - N/A   Mostly Cloudy
4:45 PM 71.6 °F - 50.0 °F 46% 29.78 in 10.0 mi South 9.2 mph - N/A   Mostly Cloudy
5:45 PM 69.8 °F - 51.8 °F 53% 29.78 in 10.0 mi South 3.5 mph - N/A   Scattered Clouds
6:45 PM 62.6 °F - 48.2 °F 59% 29.87 in 10.0 mi West 5.8 mph - N/A   Mostly Cloudy
7:55 PM 57.2 °F - 48.2 °F 72% 29.84 in 10.0 mi North 4.6 mph - N/A   Scattered Clouds
8:45 PM 55.4 °F - 48.2 °F 77% 29.85 in 10.0 mi Calm Calm - N/A   Clear
9:14 PM 55.4 °F - 46.4 °F 72% 29.86 in 10.0 mi Calm Calm - N/A   Clear
9:33 PM 53.6 °F - 46.4 °F 77% 29.87 in 10.0 mi NNW 5.8 mph - N/A   Clear
9:54 PM 53.6 °F - 46.4 °F 77% 29.88 in 10.0 mi NNW 5.8 mph - N/A   Clear
10:14 PM 53.6 °F - 46.4 °F 77% 29.88 in 10.0 mi North 4.6 mph - N/A   Clear
10:34 PM 53.6 °F - 46.4 °F 77% 29.89 in 10.0 mi North 3.5 mph - N/A   Scattered Clouds
10:54 PM 53.6 °F - 46.4 °F 77% 29.89 in 10.0 mi NNW 3.5 mph - N/A   Mostly Cloudy
11:14 PM 55.4 °F - 46.4 °F 72% 29.90 in 10.0 mi North 3.5 mph - N/A   Overcast
11:34 PM 55.4 °F - 46.4 °F 72% 29.90 in 10.0 mi North 4.6 mph - N/A   Overcast
11:54 PM 55.4 °F - 44.6 °F 67% 29.89 in 10.0 mi NNE 3.5 mph - N/A   Overcast